Wind_Speed
17 17 18 19 20 22 23 24 25 25 26 27 28 29 29 30 31 32 32 33 34 34 35 36 38 38 39 40 41 42 42 42 43 43 43 42 42 42 41 41 40 39 36 35
16 17 18 19 21 21 22 23 24 25 26 27 27 28 28 28 29 30 30 31 31 33 34 35 35 36 37 37 37 38 40 40 41 42 43 42 42 42 41 41 41 41 39 38
16 16 17 19 19 20 22 22 23 24 24 25 26 26 26 26 26 26 27 27 28 29 30 30 31 33 34 34 34 34 35 36 37 39 40 41 41 41 41 41 41 41 40 40
14 15 16 17 18 19 20 20 21 22 23 23 24 25 23 24 24 24 24 25 26 26 26 26 27 28 29 29 29 30 31 32 33 34 35 36 38 39 40 40 40 40 39 40
12 13 14 16 17 18 19 20 20 21 21 22 21 21 22 22 23 23 23 23 23 23 23 23 23 24 24 24 24 25 27 28 29 30 31 32 33 34 36 37 38 38 38 39
10 11 13 15 16 17 18 18 18 18 18 18 18 18 19 20 20 20 21 21 21 20 20 21 21 20 20 20 20 21 21 21 22 24 26 27 29 30 31 33 35 36 37 37
8 10 12 14 15 15 15 16 17 17 16 17 16 16 17 18 17 17 17 17 17 17 19 19 18 17 18 18 17 16 16 16 17 17 19 21 23 25 27 29 30 33 34 35
7 9 11 13 13 13 13 14 14 14 15 15 15 16 16 16 16 16 16 16 17 17 18 18 16 16 16 15 14 12 11 11 11 11 13 15 17 20 22 24 26 28 30 32
7 8 10 11 12 12 13 12 12 12 13 13 14 14 15 15 15 16 16 16 17 17 17 16 16 15 15 14 12 12 12 10 9 9 9 11 13 15 16 19 21 22 24 26
6 8 9 10 11 11 11 11 11 12 12 12 13 14 15 15 16 16 16 16 17 17 17 16 17 16 15 14 13 13 12 11 10 8 6 7 7 9 11 12 15 17 19 21
7 8 9 10 11 11 11 11 11 12 12 12 12 13 14 15 16 16 16 17 17 17 18 18 18 17 15 14 14 14 13 12 11 10 7 5 5 5 6 7 10 12 15 17
8 9 10 11 11 12 11 11 12 12 12 12 12 13 14 15 16 16 17 17 18 18 19 20 20 19 18 16 16 15 15 14 13 12 10 8 6 4 3 3 5 7 10 12
9 10 11 11 12 12 12 12 12 12 12 12 13 13 14 15 16 17 18 18 18 19 19 20 21 21 20 19 17 17 16 15 14 13 13 12 9 7 4 3 2 3 4 7
11 11 12 12 13 13 12 12 12 13 12 12 13 13 14 15 16 17 18 19 19 19 20 20 21 21 21 20 20 19 18 18 17 16 15 14 13 11 9 6 4 3 2 3
11 11 12 13 13 13 13 12 12 12 12 12 13 13 14 15 16 17 18 19 20 21 21 21 22 22 21 21 21 21 20 19 19 18 17 16 15 14 12 10 8 5 3 2
11 12 12 13 13 13 13 12 12 12 12 12 13 13 14 15 15 16 17 19 20 21 21 21 22 22 22 22 22 22 21 20 19 18 18 17 16 15 14 12 10 8 7 5
10 12 12 13 13 13 13 13 12 12 12 12 12 13 13 14 15 15 16 18 19 20 20 21 22 22 22 22 22 21 21 21 20 19 18 17 17 16 15 14 13 12 10 9
9 10 11 12 12 13 13 13 13 12 12 12 12 13 13 13 14 15 16 17 18 19 20 20 21 21 21 22 22 21 21 20 20 20 19 18 17 17 16 15 14 14 12 11
6 8 10 11 11 12 12 12 12 12 11 11 11 12 12 12 13 14 14 15 16 17 18 19 20 20 21 21 21 21 21 21 21 20 20 19 18 17 17 16 15 15 14 13
4 5 7 8 10 10 11 11 11 11 11 10 10 10 11 12 12 13 13 14 15 16 17 17 18 19 20 20 21 21 21 21 21 21 20 20 19 19 18 17 17 16 15 14
2 3 4 6 7 8 9 9 9 9 9 9 9 9 10 11 12 12 13 14 14 15 16 17 17 18 19 19 20 20 21 22 22 21 21 20 20 19 19 18 17 17 16 15
3 3 3 4 5 6 7 7 7 7 8 8 8 8 9 10 11 11 12 12 13 14 15 16 17 17 18 18 19 19 20 21 21 21 21 21 20 20 20 19 18 17 17 16
5 4 3 3 4 4 5 6 6 6 6 7 7 8 8 8 9 10 11 12 12 13 14 15 16 16 17 17 18 18 19 20 20 20 21 21 21 20 20 20 19 18 17 17
8 6 5 5 4 4 5 5 6 6 6 6 7 7 7 8 8 9 9 10 11 12 12 13 14 15 16 16 17 17 18 19 19 20 20 20 20 20 20 20 19 19 18 18
11 9 8 7 7 6 6 6 6 6 6 6 7 7 7 8 8 8 9 9 10 11 11 12 13 13 14 15 15 16 17 18 18 19 19 20 20 20 20 20 19 19 19 18
14 13 11 10 10 9 8 8 7 7 7 7 7 7 7 8 8 8 9 9 9 10 10 11 11 12 13 14 14 14 15 16 17 18 18 18 19 19 19 19 19 18 18 18
Wind_Direction
247 259 269 277 283 287 291 293 295 297 297 296 296 295 294 294 293 291 290 289 288 286 284 283 282 280 279 277 274 270 268 266 264 261 260 258 257 257 257 256 255 253 253 252
253 264 274 281 286 289 293 295 297 298 299 299 298 297 297 297 296 294 293 291 289 288 288 287 285 284 283 281 277 273 270 268 266 263 262 261 260 258 257 256 255 253 254 253
258 271 279 286 290 293 295 297 299 300 301 301 302 301 302 301 301 299 297 296 293 293 294 293 291 289 286 283 280 276 273 270 267 265 263 260 258 257 256 256 255 254 255 255
266 277 284 290 294 297 298 300 302 304 306 308 308 307 307 307 306 306 305 304 303 303 303 301 299 296 292 288 283 277 274 272 269 266 264 260 257 257 257 256 255 254 254 253
272 282 290 296 300 302 304 307 309 311 313 314 314 311 312 313 312 311 311 311 311 310 311 311 310 307 303 297 291 283 278 275 272 269 264 261 258 256 254 254 253 252 252 251
280 291 298 304 307 310 313 315 318 320 322 322 322 319 319 320 319 317 316 317 318 320 322 323 321 317 316 310 301 293 286 282 278 272 266 262 259 255 253 252 251 250 250 249
292 303 309 314 316 319 322 326 329 331 332 330 330 329 329 329 329 328 327 328 328 330 332 334 332 327 326 322 315 307 299 292 285 276 267 261 257 254 252 251 250 249 248 247
309 317 322 325 328 331 334 334 336 337 337 338 339 340 341 342 343 343 342 342 344 344 345 344 344 342 341 340 336 331 322 313 303 288 273 264 259 256 254 251 250 248 247 247
329 332 337 340 342 343 344 347 348 347 347 347 349 351 353 355 356 358 358 358 358 357 355 356 356 353 351 353 356 354 355 348 332 310 289 273 263 257 253 251 249 248 247 246
0 356 356 357 360 1 1 2 0 1 360 0 1 4 7 8 8 8 9 9 9 9 8 7 6 6 7 11 11 8 7 5 358 341 316 300 280 262 256 255 253 249 245 244
24 16 13 13 13 11 13 15 15 15 16 15 13 15 17 17 17 19 20 19 19 20 21 20 19 18 20 22 22 19 17 13 13 11 359 338 319 298 275 265 261 255 248 244
35 29 25 23 22 22 25 27 26 26 27 26 24 24 23 25 25 26 26 26 27 29 29 28 27 27 30 32 31 28 28 30 31 32 28 24 12 354 315 291 274 263 253 247
43 40 34 31 28 28 31 34 35 35 33 31 29 30 29 30 32 32 31 31 31 32 33 33 32 33 35 36 37 36 36 37 36 36 36 35 35 34 27 12 341 302 271 255
47 46 40 35 33 33 36 40 39 38 37 35 33 33 34 36 36 36 37 37 36 36 35 34 33 35 37 38 40 41 40 41 41 42 44 44 43 41 38 37 29 4 319 280
48 47 43 39 37 38 40 42 40 38 38 37 35 36 39 41 42 42 42 41 40 40 39 38 39 40 41 42 42 42 43 43 42 44 44 44 44 43 44 43 40 34 18 338
48 46 44 42 40 41 43 42 41 41 41 41 41 43 44 45 45 44 44 43 41 41 40 40 41 43 44 44 43 42 42 42 42 42 42 42 41 39 40 40 39 37 29 16
50 46 44 43 41 41 42 39 40 42 43 43 44 45 46 46 46 46 45 43 41 40 40 41 43 43 43 43 42 41 41 40 40 39 38 37 37 36 35 34 35 33 28 21
50 47 45 43 41 42 40 40 41 43 46 46 46 47 48 48 47 46 44 43 41 41 41 42 42 41 41 41 41 41 40 39 38 37 37 35 34 34 34 33 30 27 24 23
47 44 43 41 40 40 40 40 41 43 46 47 47 46 45 45 44 42 40 40 40 39 39 40 40 40 41 41 40 39 39 38 37 37 36 35 35 34 33 32 29 26 25 25
36 39 38 37 37 37 37 39 41 42 45 44 44 42 40 39 38 37 37 38 38 38 38 37 38 39 39 39 39 39 38 37 37 36 36 35 35 34 33 31 29 28 28 28
347 10 21 24 28 32 31 34 36 38 36 36 37 37 36 36 36 35 35 35 36 36 34 34 35 36 37 38 39 39 38 38 38 37 36 35 34 33 32 31 31 30 30 31
285 316 342 357 6 14 18 22 26 28 27 27 27 29 31 31 32 31 30 31 32 31 31 32 33 34 35 36 37 36 36 36 36 36 35 35 34 33 33 32 32 32 33 33
262 279 298 320 336 347 355 3 8 10 13 15 15 15 17 19 21 23 24 25 26 26 27 28 30 31 32 33 34 34 34 34 34 35 35 35 34 34 34 34 35 35 36 37
255 262 272 286 301 315 327 335 342 349 352 356 360 1 2 5 8 11 13 15 18 20 22 24 26 27 29 30 32 33 33 33 33 34 35 35 34 34 35 35 36 37 38 38
252 256 262 269 278 288 299 311 319 324 330 334 340 346 349 349 351 355 359 2 6 11 16 19 22 23 25 27 28 30 31 32 32 33 33 34 34 35 35 35 36 37 38 38
251 254 258 262 267 273 280 288 297 305 312 317 321 326 333 339 342 344 346 349 353 358 3 9 13 17 19 21 23 24 26 27 29 31 31 32 33 34 34 35 35 36 37 38
Height
5914 5915 5914 5913 5912 5910 5908 5905 5902 5899 5896 5893 5890 5887 5884 5882 5879 5875 5872 5869 5866 5863 5860 5858 5855 5852 5850 5847 5846 5845 5845 5844 5844 5845 5845 5846 5847 5848 5850 5852 5854 5856 5858 5860
5912 5912 5911 5909 5908 5906 5904 5901 5898 5895 5891 5888 5885 5882 5878 5875 5872 5868 5865 5862 5858 5855 5852 5849 5846 5843 5840 5837 5835 5834 5833 5833 5833 5834 5835 5836 5837 5839 5840 5842 5844 5847 5849 5851
5910 5910 5908 5906 5904 5902 5899 5897 5893 5890 5887 5883 5879 5876 5873 5869 5865 5861 5858 5854 5851 5848 5844 5841 5837 5833 5830 5828 5826 5824 5823 5822 5822 5823 5824 5825 5827 5828 5830 5832 5835 5837 5839 5842
5907 5906 5905 5903 5901 5898 5895 5893 5889 5886 5882 5879 5876 5871 5867 5863 5859 5856 5852 5848 5845 5841 5837 5833 5830 5826 5823 5820 5817 5815 5813 5813 5812 5813 5813 5815 5816 5818 5820 5822 5824 5827 5830 5832
5905 5903 5902 5900 5898 5894 5891 5888 5885 5881 5878 5874 5871 5867 5863 5859 5855 5851 5847 5843 5839 5835 5831 5827 5823 5819 5816 5812 5809 5806 5805 5804 5803 5803 5803 5804 5806 5808 5810 5812 5815 5817 5820 5823
5903 5901 5899 5897 5894 5891 5888 5885 5881 5878 5875 5871 5868 5864 5860 5855 5851 5847 5843 5839 5835 5831 5827 5823 5818 5814 5810 5806 5802 5800 5798 5797 5795 5795 5795 5796 5798 5799 5801 5803 5805 5808 5810 5813
5900 5899 5896 5894 5891 5888 5885 5882 5879 5875 5872 5869 5865 5861 5857 5852 5848 5844 5840 5836 5832 5828 5823 5819 5814 5810 5806 5802 5798 5795 5793 5791 5790 5789 5789 5789 5790 5792 5794 5795 5797 5799 5801 5804
5899 5897 5894 5891 5888 5885 5882 5880 5878 5875 5870 5866 5862 5859 5855 5850 5846 5842 5838 5834 5829 5825 5821 5816 5812 5808 5804 5800 5796 5792 5789 5788 5786 5785 5784 5784 5785 5786 5787 5788 5790 5791 5794 5796
5897 5895 5892 5889 5886 5883 5880 5877 5875 5872 5869 5865 5862 5858 5854 5849 5845 5841 5837 5833 5828 5824 5820 5815 5811 5807 5803 5799 5795 5791 5788 5786 5784 5783 5781 5781 5781 5781 5782 5783 5784 5785 5786 5788
5895 5893 5891 5888 5885 5882 5879 5876 5874 5871 5868 5865 5861 5857 5854 5849 5845 5841 5837 5833 5828 5824 5820 5815 5811 5806 5802 5798 5795 5791 5788 5786 5784 5781 5780 5779 5778 5778 5778 5778 5779 5779 5780 5782
5894 5893 5890 5887 5884 5881 5879 5876 5873 5870 5867 5865 5861 5860 5855 5850 5846 5842 5838 5833 5829 5825 5821 5816 5812 5807 5803 5799 5796 5793 5789 5787 5784 5781 5779 5778 5777 5776 5776 5775 5775 5776 5776 5777
5894 5892 5889 5887 5884 5881 5878 5876 5873 5871 5868 5865 5862 5862 5855 5851 5847 5843 5839 5835 5831 5827 5823 5818 5814 5809 5804 5801 5798 5795 5791 5788 5786 5783 5780 5778 5777 5776 5775 5774 5774 5774 5773 5774
5894 5892 5890 5888 5886 5883 5879 5876 5874 5871 5869 5866 5863 5863 5857 5853 5849 5845 5841 5837 5833 5829 5825 5821 5816 5812 5808 5804 5801 5797 5794 5791 5788 5785 5782 5780 5778 5776 5775 5774 5773 5773 5772 5772
5894 5892 5891 5889 5886 5882 5880 5877 5875 5873 5870 5867 5865 5862 5858 5855 5851 5847 5844 5840 5836 5832 5828 5824 5820 5815 5811 5808 5804 5800 5797 5794 5791 5788 5785 5783 5780 5778 5776 5775 5774 5773 5772 5771
5895 5893 5891 5889 5886 5883 5881 5878 5876 5874 5871 5869 5866 5863 5860 5857 5853 5850 5847 5843 5839 5835 5831 5827 5823 5819 5815 5811 5808 5804 5800 5797 5794 5791 5788 5785 5783 5780 5778 5776 5775 5773 5772 5771
5896 5894 5892 5890 5887 5885 5882 5880 5878 5875 5873 5870 5867 5865 5862 5859 5856 5853 5850 5846 5843 5839 5835 5831 5827 5823 5819 5815 5812 5808 5804 5801 5798 5794 5791 5788 5786 5783 5780 5778 5776 5775 5773 5771
5897 5895 5893 5891 5889 5887 5884 5882 5879 5877 5874 5872 5869 5868 5864 5861 5858 5856 5853 5849 5846 5843 5839 5835 5831 5827 5823 5819 5816 5812 5808 5805 5801 5798 5795 5792 5788 5785 5783 5780 5778 5775 5773 5771
5898 5896 5894 5892 5891 5888 5888 5883 5881 5879 5876 5874 5871 5869 5866 5864 5861 5858 5855 5852 5849 5846 5842 5839 5835 5831 5827 5824 5820 5816 5812 5809 5805 5801 5798 5794 5791 5788 5785 5782 5780 5777 5774 5771
5898 5897 5895 5894 5891 5890 5888 5885 5882 5880 5878 5876 5874 5871 5869 5866 5864 5861 5858 5855 5852 5849 5846 5842 5839 5835 5831 5827 5824 5820 5816 5812 5809 5805 5801 5798 5794 5791 5788 5785 5782 5778 5775 5773
5898 5897 5896 5894 5892 5891 5890 5887 5884 5883 5880 5878 5875 5873 5871 5868 5866 5864 5861 5858 5855 5852 5849 5845 5842 5838 5835 5831 5827 5824 5820 5816 5812 5808 5805 5801 5797 5794 5790 5787 5784 5780 5777 5774
5898 5897 5896 5894 5893 5891 5890 5887 5885 5885 5883 5879 5877 5875 5872 5870 5868 5866 5863 5860 5857 5854 5851 5848 5845 5842 5838 5834 5831 5827 5823 5820 5816 5812 5808 5804 5801 5797 5793 5790 5786 5783 5779 5776
5897 5896 5895 5894 5893 5893 5889 5887 5886 5885 5882 5880 5878 5876 5874 5872 5869 5867 5864 5862 5859 5857 5854 5850 5847 5844 5841 5837 5834 5831 5827 5823 5819 5815 5812 5808 5804 5800 5796 5793 5789 5786 5782 5779
5895 5895 5894 5894 5894 5891 5889 5887 5886 5884 5882 5880 5879 5877 5875 5873 5870 5868 5866 5863 5861 5858 5856 5853 5850 5847 5843 5840 5837 5833 5830 5826 5823 5819 5815 5811 5807 5804 5800 5796 5792 5789 5786 5782
5892 5892 5891 5891 5890 5889 5888 5886 5885 5883 5882 5880 5878 5877 5875 5873 5871 5869 5867 5864 5862 5859 5857 5854 5851 5849 5845 5842 5839 5836 5833 5829 5825 5822 5818 5814 5811 5807 5803 5800 5796 5792 5789 5786
5889 5889 5888 5888 5888 5887 5886 5885 5883 5882 5880 5879 5878 5876 5874 5872 5871 5869 5867 5865 5863 5860 5858 5855 5853 5850 5847 5844 5841 5838 5835 5832 5828 5825 5821 5818 5814 5810 5807 5803 5799 5796 5793 5789
5885 5886 5886 5886 5885 5884 5884 5883 5881 5880 5879 5878 5876 5875 5873 5871 5870 5868 5866 5864 5862 5860 5858 5856 5854 5851 5848 5846 5843 5840 5837 5834 5831 5827 5824 5821 5817 5814 5810 5806 5803 5800 5796 5793